シューメーカー-レヴィ第4彗星

118P/Shoemaker-Levy 4 (2010)

English version
Home page
Updated on September 3, 2011

---------------------------------------------------------------------

・ プロフィール

・ 写真集

・ 軌道要素

Epoch 2010 Jan. 4.0 TT = JDT 2455200.5
T 2010 Jan. 2.30390 TT                                  MPC
q   1.9839178            (2000.0)            P               Q
n   0.15284632     Peri.  302.14300     -0.07328636     -0.99485776
a   3.4644375      Node   151.80682     +0.95760318     -0.08977788
e   0.4273478      Incl.    8.50934     +0.27861308     +0.04688251
P   6.45
From 1904 observations 1995 June 22-2011 May 6, mean residual 0".8.
     Nongravitational parameters A1 = +0.37, A2 = -0.1768.

・ 星図

・ 光度変化

        m1 =  8.2 + 5 logΔ + 18.0 log r  [    ,-100]  (              〜2009年 9月24日)
        m1 = -6.0 + 5 logΔ + 60.0 log r  [-100, 100]  (2009年 9月24日〜2010年 4月12日)
        m1 =  8.2 + 5 logΔ + 18.0 log r  [ 100,    ]  (2010年 4月12日〜              )

---------------------------------------------------------------------

軌道要素はM.P.E.C. 2011-J28に掲載されたものです。
星図は StellaNavigator Ver.2.0 for Windows (アストロアーツ編著 / アスキー出版局刊) で作成したものです。
光度グラフはComet for Windowsで作成したものです。

---------------------------------------------------------------------

Copyright(C) Seiichi Yoshida (comet@aerith.net). All rights reserved.